| time (UTC) | temp F | wind direction | speed MPH | gust MPH | rain 1hr in | rain 24hr in | rain mn in | humidity % | barometer mb |
| 20260509220556 | 86 | 195 | 6.0 | 9.0 | 0.00 | 0.00 | 0.00 | 26 | 1003.5 |
| 20260509215555 | 86 | 197 | 2.0 | 3.0 | 0.00 | 0.00 | 0.00 | 25 | 1003.5 |
| 20260509214556 | 86 | 215 | 2.0 | 3.0 | 0.00 | 0.00 | 0.00 | 24 | 1003.6 |
| 20260509213555 | 86 | 250 | 2.0 | 2.0 | 0.00 | 0.00 | 0.00 | 23 | 1003.6 |
| 20260509212556 | 86 | 176 | 1.0 | 1.0 | 0.00 | 0.00 | 0.00 | 23 | 1003.8 |
| 20260509211555 | 86 | 186 | 5.0 | 6.0 | 0.00 | 0.00 | 0.00 | 23 | 1004.0 |
| 20260509210556 | 86 | 181 | 1.0 | 5.0 | 0.00 | 0.00 | 0.00 | 24 | 1004.1 |
| 20260509205555 | 86 | 220 | 3.0 | 3.0 | 0.00 | 0.00 | 0.00 | 23 | 1004.1 |
| 20260509204556 | 86 | 181 | 5.0 | 5.0 | 0.00 | 0.00 | 0.00 | 23 | 1004.3 |
| 20260509203556 | 86 | 217 | 1.0 | 3.0 | 0.00 | 0.00 | 0.00 | 24 | 1004.5 |
| 20260509202555 | 85 | 145 | 2.0 | 5.0 | 0.00 | 0.00 | 0.00 | 25 | 1004.7 |
| 20260509201556 | 85 | 242 | 1.0 | 3.0 | 0.00 | 0.00 | 0.00 | 26 | 1004.7 |
| 20260509200554 | 85 | 190 | 3.0 | 9.0 | 0.00 | 0.00 | 0.00 | 31 | 1004.8 |
| 20260509195555 | 85 | 181 | 3.0 | 6.0 | 0.00 | 0.00 | 0.00 | 24 | 1005.0 |
| 20260509194555 | 85 | 154 | 0.0 | 2.0 | 0.00 | 0.00 | 0.00 | 25 | 1005.0 |
| 20260509193555 | 85 | 212 | 2.0 | 3.0 | 0.00 | 0.00 | 0.00 | 24 | 1005.2 |
| 20260509192555 | 85 | 207 | 5.0 | 7.0 | 0.00 | 0.00 | 0.00 | 26 | 1005.2 |
| 20260509191555 | 85 | 294 | 1.0 | 1.0 | 0.00 | 0.00 | 0.00 | 26 | 1005.2 |
| 20260509190554 | 85 | 193 | 2.0 | 3.0 | 0.00 | 0.00 | 0.00 | 24 | 1005.2 |
| 20260509185556 | 85 | 186 | 3.0 | 7.0 | 0.00 | 0.00 | 0.00 | 27 | 1005.4 |
| 20260509184556 | 85 | 244 | 0.0 | 2.0 | 0.00 | 0.00 | 0.00 | 25 | 1005.5 |
| 20260509183555 | 85 | 229 | 0.0 | 1.0 | 0.00 | 0.00 | 0.00 | 25 | 1005.6 |
| 20260509182554 | 84 | 222 | 2.0 | 3.0 | 0.00 | 0.00 | 0.00 | 27 | 1005.7 |
| 20260509181555 | 83 | 287 | 1.0 | 1.0 | 0.00 | 0.00 | 0.00 | 27 | 1005.9 |
| 20260509180555 | 83 | 198 | 1.0 | 6.0 | 0.00 | 0.00 | 0.00 | 28 | 1006.1 |
| 20260509175555 | 82 | 281 | 1.0 | 1.0 | 0.00 | 0.00 | 0.00 | 27 | 1006.3 |
| 20260509174555 | 82 | 309 | 1.0 | 3.0 | 0.00 | 0.00 | 0.00 | 27 | 1006.4 |
| 20260509173556 | 82 | 294 | 2.0 | 3.0 | 0.00 | 0.00 | 0.00 | 28 | 1006.6 |
| 20260509172554 | 82 | 267 | 1.0 | 2.0 | 0.00 | 0.00 | 0.00 | 29 | 1006.7 |
| 20260509171555 | 80 | 278 | 0.0 | 1.0 | 0.00 | 0.00 | 0.00 | 29 | 1006.9 |
| 20260509170554 | 81 | 272 | 1.0 | 3.0 | 0.00 | 0.00 | 0.00 | 30 | 1007.0 |
| 20260509165555 | 80 | 263 | 1.0 | 3.0 | 0.00 | 0.00 | 0.00 | 30 | 1006.9 |
| 20260509164556 | 81 | 283 | 1.0 | 2.0 | 0.00 | 0.00 | 0.00 | 29 | 1006.9 |
| 20260509163555 | 80 | 284 | 2.0 | 2.0 | 0.00 | 0.00 | 0.00 | 30 | 1006.9 |
| 20260509162554 | 79 | 287 | 0.0 | 0.0 | 0.00 | 0.00 | 0.00 | 33 | 1007.2 |
| 20260509161555 | 79 | 285 | 1.0 | 1.0 | 0.00 | 0.00 | 0.00 | 33 | 1007.1 |
| 20260509160554 | 78 | 274 | 1.0 | 2.0 | 0.00 | 0.00 | 0.00 | 36 | 1007.1 |
| 20260509155555 | 78 | 288 | 0.0 | 1.0 | 0.00 | 0.00 | 0.00 | 37 | 1006.9 |
| 20260509154554 | 77 | 284 | 1.0 | 2.0 | 0.00 | 0.00 | 0.00 | 39 | 1007.0 |
| 20260509153555 | 76 | 281 | 1.0 | 1.0 | 0.00 | 0.00 | 0.00 | 41 | 1006.9 |
| 20260509152554 | 74 | 280 | 1.0 | 1.0 | 0.00 | 0.00 | 0.00 | 43 | 1007.0 |
| 20260509151555 | 73 | 274 | 0.0 | 1.0 | 0.00 | 0.00 | 0.00 | 50 | 1007.0 |
| 20260509150556 | 71 | 286 | 0.0 | 1.0 | 0.00 | 0.00 | 0.00 | 53 | 1007.2 |
| 20260509145554 | 70 | 242 | 0.0 | 2.0 | 0.00 | 0.00 | 0.00 | 57 | 1007.0 |
| 20260509144555 | 69 | 277 | 0.0 | 1.0 | 0.00 | 0.00 | 0.00 | 61 | 1007.0 |
| 20260509143555 | 68 | 262 | 0.0 | 1.0 | 0.00 | 0.00 | 0.00 | 63 | 1007.2 |
| 20260509142556 | 66 | 245 | 0.0 | 2.0 | 0.00 | 0.00 | 0.00 | 67 | 1007.3 |
| 20260509141556 | 65 | 240 | 0.0 | 1.0 | 0.00 | 0.00 | 0.00 | 69 | 1007.3 |
| 20260509140555 | 63 | 268 | 1.0 | 1.0 | 0.00 | 0.00 | 0.00 | 70 | 1007.3 |
| 20260509135554 | 62 | 261 | 1.0 | 1.0 | 0.00 | 0.00 | 0.00 | 71 | 1007.1 |
| 20260509134554 | 61 | 262 | 0.0 | 1.0 | 0.00 | 0.00 | 0.00 | 73 | 1007.1 |
| 20260509134323 | 61 | 262 | 0.0 | 0.0 | 0.00 | 0.00 | 0.00 | 72 | 1007.1 |
| 20260509133555 | 60 | 264 | 0.0 | 1.0 | 0.00 | 0.00 | 0.00 | 74 | 1007.2 |
| 20260509132555 | 59 | 283 | 0.0 | 1.0 | 0.00 | 0.00 | 0.00 | 75 | 1007.4 |
| 20260509131555 | 59 | 278 | 1.0 | 1.0 | 0.00 | 0.00 | 0.00 | 75 | 1007.3 |
| 20260509130555 | 57 | 252 | 0.0 | 0.0 | 0.00 | 0.00 | 0.00 | 75 | 1007.3 |
| 20260509125554 | 56 | 252 | 0.0 | 1.0 | 0.00 | 0.00 | 0.00 | 76 | 1007.0 |
| 20260509125324 | 56 | 252 | 0.0 | 1.0 | 0.00 | 0.00 | 0.00 | 77 | 1007.0 |
| 20260509124556 | 56 | 252 | 0.0 | 0.0 | 0.00 | 0.00 | 0.00 | 77 | 1007.0 |
| 20260509123555 | 54 | 252 | 0.0 | 0.0 | 0.00 | 0.00 | 0.00 | 79 | 1006.8 |
| 20260509122555 | 53 | 252 | 0.0 | 1.0 | 0.00 | 0.00 | 0.00 | 83 | 1006.8 |
| 20260509121555 | 51 | 252 | 0.0 | 0.0 | 0.00 | 0.00 | 0.00 | 86 | 1006.9 |
| 20260509120554 | 50 | 252 | 0.0 | 0.0 | 0.00 | 0.00 | 0.00 | 85 | 1006.8 |
| 20260509120324 | 50 | 252 | 0.0 | 0.0 | 0.00 | 0.00 | 0.00 | 85 | 1006.8 |
| 20260509115556 | 50 | 252 | 0.0 | 0.0 | 0.00 | 0.00 | 0.00 | 84 | 1006.8 |
| 20260509114555 | 50 | 252 | 0.0 | 0.0 | 0.00 | 0.00 | 0.00 | 84 | 1006.7 |
| 20260509113555 | 51 | 252 | 0.0 | 0.0 | 0.00 | 0.00 | 0.00 | 82 | 1006.3 |
| 20260509112555 | 51 | 252 | 0.0 | 0.0 | 0.00 | 0.00 | 0.00 | 83 | 1006.3 |
| 20260509111554 | 51 | 252 | 0.0 | 0.0 | 0.00 | 0.00 | 0.00 | 82 | 1006.3 |
| 20260509110555 | 51 | 252 | 0.0 | 0.0 | 0.00 | 0.00 | 0.00 | 81 | 1006.1 |
| 20260509105555 | 52 | 252 | 0.0 | 0.0 | 0.00 | 0.00 | 0.00 | 81 | 1006.1 |
| 20260509104555 | 52 | 252 | 0.0 | 0.0 | 0.00 | 0.00 | 0.00 | 81 | 1006.2 |
| 20260509103554 | 52 | 252 | 0.0 | 0.0 | 0.00 | 0.00 | 0.00 | 81 | 1006.2 |
| 20260509102555 | 52 | 252 | 0.0 | 0.0 | 0.00 | 0.00 | 0.00 | 81 | 1006.2 |
| 20260509101555 | 53 | 252 | 0.0 | 0.0 | 0.00 | 0.00 | 0.00 | 79 | 1006.3 |
| 20260509100555 | 53 | 252 | 0.0 | 0.0 | 0.00 | 0.00 | 0.00 | 80 | 1006.5 |
| 20260509095554 | 54 | 246 | 0.0 | 2.0 | 0.00 | 0.00 | 0.00 | 80 | 1006.3 |
| 20260509094555 | 54 | 246 | 0.0 | 0.0 | 0.00 | 0.00 | 0.00 | 80 | 1006.3 |
| 20260509093554 | 53 | 246 | 0.0 | 1.0 | 0.00 | 0.00 | 0.00 | 83 | 1006.3 |
| 20260509092555 | 52 | 215 | 0.0 | 0.0 | 0.00 | 0.00 | 0.00 | 81 | 1006.4 |
| 20260509091556 | 52 | 215 | 0.0 | 0.0 | 0.00 | 0.00 | 0.00 | 80 | 1006.5 |
| 20260509090554 | 52 | 215 | 0.0 | 0.0 | 0.00 | 0.00 | 0.00 | 79 | 1006.5 |
| 20260509085554 | 52 | 215 | 0.0 | 0.0 | 0.00 | 0.00 | 0.00 | 80 | 1006.7 |
| 20260509084553 | 53 | 215 | 0.0 | 0.0 | 0.00 | 0.00 | 0.00 | 80 | 1006.5 |
| 20260509083553 | 53 | 215 | 0.0 | 0.0 | 0.00 | 0.00 | 0.00 | 79 | 1006.6 |
| 20260509082554 | 53 | 215 | 0.0 | 0.0 | 0.00 | 0.00 | 0.00 | 77 | 1006.7 |
| 20260509081553 | 54 | 210 | 0.0 | 1.0 | 0.00 | 0.00 | 0.00 | 76 | 1006.7 |
| 20260509080554 | 54 | 192 | 0.0 | 1.0 | 0.00 | 0.00 | 0.00 | 76 | 1006.7 |
| 20260509075553 | 54 | 211 | 0.0 | 0.0 | 0.00 | 0.00 | 0.00 | 75 | 1006.8 |
| 20260509074554 | 55 | 211 | 0.0 | 0.0 | 0.00 | 0.00 | 0.00 | 74 | 1006.8 |
| 20260509073553 | 55 | 211 | 0.0 | 0.0 | 0.00 | 0.00 | 0.00 | 74 | 1006.8 |
| 20260509072554 | 56 | 211 | 0.0 | 0.0 | 0.00 | 0.00 | 0.00 | 73 | 1006.8 |
| 20260509071553 | 56 | 206 | 0.0 | 2.0 | 0.00 | 0.00 | 0.00 | 73 | 1006.7 |
| 20260509070554 | 56 | 203 | 0.0 | 1.0 | 0.00 | 0.00 | 0.00 | 74 | 1006.7 |
| 20260509065553 | 56 | 218 | 0.0 | 0.0 | 0.00 | 0.00 | 0.00 | 74 | 1006.5 |
| 20260509064633 | 55 | 208 | 0.0 | 3.0 | 0.00 | 0.00 | 0.00 | 75 | 1006.7 |
| 20260509063632 | 54 | 200 | 1.0 | 2.0 | 0.00 | 0.00 | 0.00 | 75 | 1006.7 |
| 20260509062633 | 54 | 189 | 1.0 | 1.0 | 0.00 | 0.00 | 0.00 | 75 | 1006.7 |
| 20260509061631 | 54 | 179 | 1.0 | 2.0 | 0.00 | 0.00 | 0.00 | 74 | 1006.7 |
| 20260509060633 | 54 | 35 | 0.0 | 0.0 | 0.00 | 0.00 | 0.00 | 74 | 1006.6 |
| 20260509055632 | 54 | 35 | 0.0 | 0.0 | 0.00 | 0.00 | 0.00 | 73 | 1006.5 |
| 20260509054633 | 54 | 35 | 0.0 | 0.0 | 0.00 | 0.00 | 0.00 | 73 | 1006.5 |
| 20260509053631 | 55 | 35 | 0.0 | 0.0 | 0.00 | 0.00 | 0.00 | 72 | 1006.5 |
| 20260509052633 | 55 | 35 | 0.0 | 0.0 | 0.00 | 0.00 | 0.00 | 72 | 1006.6 |
| 20260509051632 | 55 | 35 | 0.0 | 0.0 | 0.00 | 0.00 | 0.00 | 72 | 1006.6 |
| 20260509050633 | 56 | 35 | 0.0 | 0.0 | 0.00 | 0.00 | 0.00 | 70 | 1006.6 |
| 20260509045632 | 56 | 35 | 0.0 | 0.0 | 0.00 | 0.00 | 0.00 | 70 | 1006.7 |
| 20260509044632 | 56 | 35 | 0.0 | 0.0 | 0.00 | 0.00 | 0.00 | 70 | 1006.8 |
| 20260509043631 | 57 | 35 | 0.0 | 0.0 | 0.00 | 0.00 | 0.00 | 69 | 1006.7 |
| 20260509042632 | 57 | 35 | 0.0 | 0.0 | 0.00 | 0.00 | 0.00 | 69 | 1006.6 |
| 20260509041631 | 57 | 35 | 0.0 | 0.0 | 0.00 | 0.00 | 0.00 | 69 | 1006.6 |
| 20260509040633 | 57 | 35 | 0.0 | 0.0 | 0.00 | 0.00 | 0.00 | 68 | 1006.5 |
| 20260509035632 | 58 | 35 | 0.0 | 0.0 | 0.00 | 0.00 | 0.00 | 68 | 1006.6 |
| 20260509034632 | 58 | 35 | 0.0 | 0.0 | 0.00 | 0.00 | 0.00 | 66 | 1006.6 |
| 20260509033631 | 59 | 35 | 0.0 | 0.0 | 0.00 | 0.00 | 0.00 | 66 | 1006.6 |
| 20260509032633 | 60 | 35 | 0.0 | 0.0 | 0.00 | 0.00 | 0.00 | 65 | 1006.4 |
| 20260509031632 | 60 | 35 | 0.0 | 0.0 | 0.00 | 0.00 | 0.00 | 64 | 1006.2 |
| 20260509030633 | 61 | 35 | 0.0 | 0.0 | 0.00 | 0.00 | 0.00 | 62 | 1006.1 |
| 20260509025632 | 62 | 35 | 0.0 | 0.0 | 0.00 | 0.00 | 0.00 | 62 | 1006.0 |
| 20260509024632 | 62 | 35 | 0.0 | 0.0 | 0.00 | 0.00 | 0.00 | 58 | 1006.0 |
| 20260509023632 | 63 | 35 | 0.0 | 0.0 | 0.00 | 0.00 | 0.00 | 56 | 1005.8 |
| 20260509022633 | 65 | 35 | 0.0 | 0.0 | 0.00 | 0.00 | 0.00 | 55 | 1005.6 |
| 20260509021631 | 66 | 35 | 0.0 | 0.0 | 0.00 | 0.00 | 0.00 | 54 | 1005.4 |
| 20260509020632 | 67 | 35 | 0.0 | 0.0 | 0.00 | 0.00 | 0.00 | 52 | 1005.3 |
| 20260509015631 | 69 | 35 | 0.0 | 0.0 | 0.00 | 0.00 | 0.00 | 48 | 1005.3 |
| 20260509014632 | 70 | 35 | 0.0 | 0.0 | 0.00 | 0.00 | 0.00 | 44 | 1005.1 |
| 20260509013632 | 71 | 35 | 0.0 | 0.0 | 0.00 | 0.00 | 0.00 | 44 | 1004.7 |
| 20260509012633 | 72 | 18 | 1.0 | 2.0 | 0.00 | 0.00 | 0.00 | 40 | 1004.7 |
| 20260509011631 | 73 | 5 | 0.0 | 1.0 | 0.00 | 0.00 | 0.00 | 41 | 1004.5 |
| 20260509010632 | 73 | 34 | 2.0 | 3.0 | 0.00 | 0.00 | 0.00 | 40 | 1004.4 |
| 20260509005631 | 74 | 29 | 2.0 | 6.0 | 0.00 | 0.00 | 0.00 | 38 | 1004.5 |
| 20260509004633 | 75 | 16 | 3.0 | 3.0 | 0.00 | 0.00 | 0.00 | 38 | 1004.3 |
| 20260509003632 | 75 | 10 | 2.0 | 7.0 | 0.00 | 0.00 | 0.00 | 40 | 1004.2 |
| 20260509002633 | 75 | 29 | 5.0 | 10.0 | 0.00 | 0.00 | 0.00 | 40 | 1004.0 |
| 20260509001632 | 76 | 25 | 5.0 | 9.0 | 0.00 | 0.00 | 0.00 | 40 | 1003.8 |
| 20260509000633 | 76 | 25 | 3.0 | 7.0 | 0.00 | 0.00 | 0.00 | 39 | 1003.7 |
| 20260508235632 | 77 | 15 | 5.0 | 8.0 | 0.00 | 0.00 | 0.00 | 38 | 1003.7 |
| 20260508234631 | 77 | 265 | 1.0 | 12.0 | 0.00 | 0.00 | 0.00 | 37 | 1003.6 |
| 20260508233632 | 77 | 23 | 3.0 | 10.0 | 0.00 | 0.00 | 0.00 | 40 | 1003.4 |
| 20260508232631 | 78 | 27 | 5.0 | 6.0 | 0.00 | 0.00 | 0.00 | 41 | 1003.1 |
| 20260508231632 | 78 | 11 | 3.0 | 3.0 | 0.00 | 0.00 | 0.00 | 42 | 1003.1 |
| 20260508230631 | 78 | 24 | 5.0 | 12.0 | 0.00 | 0.00 | 0.00 | 41 | 1003.1 |
| 20260508225632 | 78 | 17 | 7.0 | 13.0 | 0.00 | 0.00 | 0.00 | 39 | 1003.1 |
| 20260508224633 | 78 | 17 | 10.0 | 14.0 | 0.00 | 0.00 | 0.00 | 38 | 1003.1 |
| 20260508223632 | 78 | 333 | 5.0 | 9.0 | 0.00 | 0.00 | 0.00 | 39 | 1003.2 |
| 20260508222631 | 78 | 336 | 2.0 | 2.0 | 0.00 | 0.00 | 0.00 | 39 | 1003.1 |
| 20260508221632 | 78 | 7 | 5.0 | 10.0 | 0.00 | 0.00 | 0.00 | 38 | 1003.0 |